| time (UTC) | temp C | wind direction | speed KPH | gust KPH | rain 1hr cm | rain 24hr cm | rain mn cm | humidity % | barometer mb |
| 20260906103611 | 36 | 76 | 3.2 | 11.3 | 0.00 | 0.00 | 0.00 | 24 | 993.7 |
| 20260906102711 | 36 | 286 | 1.6 | 6.4 | 0.00 | 0.00 | 0.00 | 25 | 993.7 |
| 20260906101811 | 36 | 284 | 1.6 | 6.4 | 0.00 | 0.00 | 0.00 | 25 | 993.9 |
| 20260906100911 | 35 | 285 | 4.8 | 12.9 | 0.00 | 0.00 | 0.00 | 26 | 993.9 |
| 20260906100012 | 36 | 302 | 3.2 | 11.3 | 0.00 | 0.00 | 0.00 | 25 | 993.9 |
| 20260906095111 | 36 | 105 | 1.6 | 6.4 | 0.00 | 0.00 | 0.00 | 26 | 993.9 |
| 20260906094211 | 36 | 314 | 0.0 | 12.9 | 0.00 | 0.00 | 0.00 | 25 | 994.1 |
| 20260906093311 | 34 | 289 | 6.4 | 12.9 | 0.00 | 0.00 | 0.00 | 28 | 994.1 |
| 20260906091511 | 36 | 257 | 0.0 | 6.4 | 0.00 | 0.00 | 0.00 | 25 | 994.2 |
| 20260906090611 | 34 | 173 | 4.8 | 6.4 | 0.00 | 0.00 | 0.00 | 27 | 994.2 |
| 20260906085711 | 34 | 268 | 1.6 | 9.7 | 0.00 | 0.00 | 0.00 | 27 | 994.4 |
| 20260906084811 | 34 | 172 | 3.2 | 6.4 | 0.00 | 0.00 | 0.00 | 27 | 994.3 |
| 20260906083911 | 35 | 114 | 3.2 | 6.4 | 0.00 | 0.00 | 0.00 | 26 | 994.3 |
| 20260906081211 | 34 | 107 | 3.2 | 6.4 | 0.00 | 0.00 | 0.00 | 27 | 994.3 |
| 20260906080311 | 35 | 98 | 0.0 | 3.2 | 0.00 | 0.00 | 0.00 | 26 | 994.4 |
| 20260906075411 | 35 | 118 | 1.6 | 6.4 | 0.00 | 0.00 | 0.00 | 26 | 994.4 |
| 20260906074511 | 33 | 100 | 3.2 | 6.4 | 0.00 | 0.00 | 0.00 | 27 | 994.3 |
| 20260906072711 | 33 | 248 | 1.6 | 3.2 | 0.00 | 0.00 | 0.00 | 28 | 994.3 |
| 20260906070911 | 32 | 248 | 0.0 | 3.2 | 0.00 | 0.00 | 0.00 | 30 | 994.2 |
| 20260906065111 | 31 | 248 | 0.0 | 3.2 | 0.00 | 0.00 | 0.00 | 31 | 994.0 |
| 20260906064211 | 30 | 248 | 0.0 | 3.2 | 0.00 | 0.00 | 0.00 | 32 | 994.0 |
| 20260906063311 | 30 | 248 | 0.0 | 3.2 | 0.00 | 0.00 | 0.00 | 32 | 993.8 |
| 20260906061511 | 29 | 270 | 0.0 | 3.2 | 0.00 | 0.00 | 0.00 | 35 | 993.7 |
| 20260906060611 | 28 | 292 | 0.0 | 3.2 | 0.00 | 0.00 | 0.00 | 36 | 993.6 |
| 20260906055711 | 27 | 281 | 0.0 | 3.2 | 0.00 | 0.00 | 0.00 | 37 | 993.6 |
| 20260906053911 | 27 | 292 | 0.0 | 3.2 | 0.00 | 0.00 | 0.00 | 38 | 993.5 |
| 20260906053011 | 27 | 281 | 0.0 | 6.4 | 0.00 | 0.00 | 0.00 | 38 | 993.6 |
| 20260906052111 | 26 | 289 | 0.0 | 6.4 | 0.00 | 0.00 | 0.00 | 38 | 993.6 |
| 20260906051211 | 25 | 301 | 3.2 | 6.4 | 0.00 | 0.00 | 0.00 | 39 | 993.6 |
| 20260906050311 | 25 | 285 | 1.6 | 6.4 | 0.00 | 0.00 | 0.00 | 41 | 993.7 |
| 20260906045411 | 24 | 259 | 0.0 | 3.2 | 0.00 | 0.00 | 0.00 | 41 | 993.7 |
| 20260906044512 | 24 | 248 | 0.0 | 3.2 | 0.00 | 0.00 | 0.00 | 41 | 993.7 |
| 20260906043611 | 23 | 248 | 0.0 | 3.2 | 0.00 | 0.00 | 0.00 | 41 | 993.6 |
| 20260906042711 | 23 | 248 | 0.0 | 3.2 | 0.00 | 0.00 | 0.00 | 41 | 993.4 |
| 20260906041811 | 23 | 248 | 0.0 | 3.2 | 0.00 | 0.00 | 0.00 | 41 | 993.4 |
| 20260906040011 | 23 | 254 | 0.0 | 3.2 | 0.00 | 0.00 | 0.00 | 41 | 993.2 |
| 20260906035111 | 23 | 251 | 0.0 | 3.2 | 0.00 | 0.00 | 0.00 | 41 | 993.2 |
| 20260906034211 | 23 | 237 | 1.6 | 3.2 | 0.00 | 0.00 | 0.00 | 41 | 993.1 |
| 20260906032411 | 23 | 225 | 0.0 | 3.2 | 0.00 | 0.00 | 0.00 | 41 | 992.9 |
| 20260906031511 | 23 | 237 | 0.0 | 3.2 | 0.00 | 0.00 | 0.00 | 41 | 992.9 |
| 20260906030611 | 24 | 249 | 0.0 | 3.2 | 0.00 | 0.00 | 0.00 | 41 | 992.8 |
| 20260906025711 | 23 | 248 | 0.0 | 3.2 | 0.00 | 0.00 | 0.00 | 41 | 992.9 |
| 20260906024811 | 24 | 248 | 1.6 | 3.2 | 0.00 | 0.00 | 0.00 | 41 | 992.6 |
| 20260906023911 | 24 | 248 | 0.0 | 3.2 | 0.00 | 0.00 | 0.00 | 41 | 992.5 |
| 20260906022111 | 24 | 241 | 0.0 | 3.2 | 0.00 | 0.00 | 0.00 | 41 | 992.4 |
| 20260906021211 | 24 | 248 | 0.0 | 3.2 | 0.00 | 0.00 | 0.00 | 41 | 992.5 |
| 20260906020311 | 24 | 245 | 1.6 | 3.2 | 0.00 | 0.00 | 0.00 | 40 | 992.5 |
| 20260906014511 | 24 | 255 | 0.0 | 3.2 | 0.00 | 0.00 | 0.00 | 40 | 992.5 |
| 20260906013611 | 24 | 246 | 0.0 | 3.2 | 0.00 | 0.00 | 0.00 | 40 | 992.6 |
| 20260906012711 | 24 | 0 | 0.0 | 0.0 | 0.00 | 0.00 | 0.00 | 40 | 992.5 |
| 20260906011811 | 24 | 0 | 0.0 | 0.0 | 0.00 | 0.00 | 0.00 | 40 | 992.6 |
| 20260906010911 | 24 | 270 | 0.0 | 3.2 | 0.00 | 0.00 | 0.00 | 40 | 992.7 |
| 20260906010011 | 25 | 270 | 0.0 | 3.2 | 0.00 | 0.00 | 0.00 | 40 | 992.7 |
| 20260906005111 | 25 | 270 | 0.0 | 6.4 | 0.00 | 0.00 | 0.00 | 39 | 992.7 |
| 20260906004211 | 25 | 270 | 3.2 | 6.4 | 0.00 | 0.00 | 0.00 | 40 | 992.6 |
| 20260906003311 | 25 | 270 | 0.0 | 3.2 | 0.00 | 0.00 | 0.00 | 39 | 992.6 |
| 20260906001511 | 25 | 267 | 0.0 | 3.2 | 0.00 | 0.00 | 0.00 | 39 | 992.6 |
| 20260906000611 | 25 | 270 | 0.0 | 3.2 | 0.00 | 0.00 | 0.00 | 39 | 992.6 |
| 20260905235711 | 25 | 255 | 1.6 | 3.2 | 0.00 | 0.00 | 0.00 | 39 | 992.7 |
| 20260905233911 | 25 | 241 | 0.0 | 3.2 | 0.00 | 0.00 | 0.00 | 39 | 992.7 |
| 20260905233011 | 25 | 248 | 0.0 | 3.2 | 0.00 | 0.00 | 0.00 | 39 | 992.7 |
| 20260905232111 | 26 | 241 | 0.0 | 3.2 | 0.00 | 0.00 | 0.00 | 38 | 992.9 |
| 20260905230311 | 26 | 225 | 4.8 | 6.4 | 0.00 | 0.00 | 0.00 | 38 | 993.0 |
| 20260905225411 | 25 | 225 | 0.0 | 3.2 | 0.00 | 0.00 | 0.00 | 39 | 993.0 |
| 20260905224511 | 26 | 230 | 0.0 | 3.2 | 0.00 | 0.00 | 0.00 | 38 | 993.1 |
| 20260905223611 | 26 | 248 | 0.0 | 3.2 | 0.00 | 0.00 | 0.00 | 38 | 993.2 |
| 20260905222711 | 26 | 248 | 0.0 | 3.2 | 0.00 | 0.00 | 0.00 | 38 | 993.2 |
| 20260905221811 | 26 | 0 | 0.0 | 0.0 | 0.00 | 0.00 | 0.00 | 38 | 993.0 |
| 20260905220911 | 26 | 0 | 0.0 | 0.0 | 0.00 | 0.00 | 0.00 | 38 | 993.0 |
| 20260905220011 | 26 | 248 | 0.0 | 3.2 | 0.00 | 0.00 | 0.00 | 38 | 993.1 |
| 20260905213311 | 26 | 286 | 0.0 | 3.2 | 0.00 | 0.00 | 0.00 | 37 | 993.0 |
| 20260905212411 | 26 | 292 | 0.0 | 3.2 | 0.00 | 0.00 | 0.00 | 37 | 993.1 |
| 20260905211511 | 27 | 282 | 1.6 | 3.2 | 0.00 | 0.00 | 0.00 | 37 | 993.0 |
| 20260905210611 | 26 | 0 | 0.0 | 0.0 | 0.00 | 0.00 | 0.00 | 37 | 993.0 |
| 20260905205711 | 27 | 0 | 0.0 | 0.0 | 0.00 | 0.00 | 0.00 | 37 | 993.2 |
| 20260905203911 | 27 | 292 | 0.0 | 3.2 | 0.00 | 0.00 | 0.00 | 36 | 993.0 |
| 20260905203011 | 27 | 0 | 0.0 | 0.0 | 0.00 | 0.00 | 0.00 | 37 | 992.9 |
| 20260905202111 | 27 | 0 | 0.0 | 0.0 | 0.00 | 0.00 | 0.00 | 37 | 992.8 |
| 20260905200311 | 27 | 0 | 0.0 | 0.0 | 0.00 | 0.00 | 0.00 | 35 | 993.0 |
| 20260905194511 | 28 | 0 | 0.0 | 0.0 | 0.00 | 0.00 | 0.00 | 35 | 993.1 |
| 20260905193611 | 28 | 0 | 0.0 | 0.0 | 0.00 | 0.00 | 0.00 | 34 | 993.1 |
| 20260905192711 | 28 | 292 | 0.0 | 3.2 | 0.00 | 0.00 | 0.00 | 34 | 993.1 |
| 20260905191811 | 28 | 292 | 1.6 | 3.2 | 0.00 | 0.00 | 0.00 | 34 | 993.1 |
| 20260905190911 | 28 | 297 | 0.0 | 6.4 | 0.00 | 0.00 | 0.00 | 34 | 993.0 |
| 20260905190011 | 28 | 281 | 3.2 | 6.4 | 0.00 | 0.00 | 0.00 | 34 | 993.0 |
| 20260905185111 | 28 | 298 | 0.0 | 6.4 | 0.00 | 0.00 | 0.00 | 35 | 993.1 |
| 20260905184211 | 28 | 301 | 1.6 | 6.4 | 0.00 | 0.00 | 0.00 | 35 | 993.0 |
| 20260905183311 | 28 | 285 | 1.6 | 6.4 | 0.00 | 0.00 | 0.00 | 35 | 993.0 |
| 20260905182411 | 28 | 273 | 1.6 | 6.4 | 0.00 | 0.00 | 0.00 | 35 | 992.8 |
| 20260905180611 | 29 | 286 | 1.6 | 9.7 | 0.00 | 0.00 | 0.00 | 34 | 992.6 |
| 20260905174811 | 29 | 249 | 3.2 | 6.4 | 0.00 | 0.00 | 0.00 | 34 | 992.4 |
| 20260905173011 | 29 | 248 | 3.2 | 6.4 | 0.00 | 0.00 | 0.00 | 34 | 992.3 |
| 20260905172111 | 30 | 255 | 1.6 | 6.4 | 0.00 | 0.00 | 0.00 | 34 | 992.2 |
| 20260905171211 | 30 | 237 | 3.2 | 6.4 | 0.00 | 0.00 | 0.00 | 34 | 992.0 |
| 20260905170311 | 30 | 237 | 3.2 | 6.4 | 0.00 | 0.00 | 0.00 | 34 | 992.0 |
| 20260905164511 | 31 | 218 | 4.8 | 6.4 | 0.00 | 0.00 | 0.00 | 31 | 992.0 |
| 20260905163611 | 31 | 248 | 3.2 | 12.9 | 0.00 | 0.00 | 0.00 | 30 | 992.1 |
| 20260905162711 | 32 | 257 | 3.2 | 9.7 | 0.00 | 0.00 | 0.00 | 29 | 992.1 |
| 20260905161811 | 32 | 247 | 3.2 | 6.4 | 0.00 | 0.00 | 0.00 | 28 | 992.1 |
| 20260905160911 | 32 | 250 | 3.2 | 14.5 | 0.00 | 0.00 | 0.00 | 27 | 992.2 |
| 20260905160011 | 32 | 242 | 3.2 | 9.7 | 0.00 | 0.00 | 0.00 | 27 | 992.4 |
| 20260905155111 | 33 | 260 | 3.2 | 9.7 | 0.00 | 0.00 | 0.00 | 27 | 992.4 |
| 20260905154211 | 33 | 334 | 3.2 | 20.9 | 0.00 | 0.00 | 0.00 | 25 | 992.4 |
| 20260905153311 | 32 | 298 | 6.4 | 22.5 | 0.00 | 0.00 | 0.00 | 27 | 992.4 |
| 20260905152411 | 33 | 303 | 8.0 | 27.4 | 0.00 | 0.00 | 0.00 | 27 | 992.5 |
| 20260905151511 | 33 | 276 | 4.8 | 25.7 | 0.00 | 0.00 | 0.00 | 27 | 992.6 |
| 20260905145711 | 33 | 302 | 11.3 | 20.9 | 0.00 | 0.00 | 0.00 | 27 | 992.4 |
| 20260905144811 | 34 | 319 | 3.2 | 25.7 | 0.00 | 0.00 | 0.00 | 26 | 992.4 |
| 20260905143011 | 32 | 316 | 22.5 | 37.0 | 0.00 | 0.00 | 0.00 | 28 | 992.4 |
| 20260905142111 | 32 | 294 | 22.5 | 37.0 | 0.00 | 0.00 | 0.00 | 28 | 992.3 |
| 20260905141211 | 33 | 274 | 3.2 | 29.0 | 0.00 | 0.00 | 0.00 | 27 | 992.5 |
| 20260905140311 | 33 | 300 | 9.7 | 29.0 | 0.00 | 0.00 | 0.00 | 27 | 992.4 |
| 20260905135411 | 33 | 302 | 8.0 | 27.4 | 0.00 | 0.00 | 0.00 | 27 | 992.4 |
| 20260905134511 | 33 | 312 | 12.9 | 29.0 | 0.00 | 0.00 | 0.00 | 27 | 992.5 |
| 20260905133611 | 33 | 276 | 6.4 | 24.1 | 0.00 | 0.00 | 0.00 | 29 | 992.6 |
| 20260905132711 | 34 | 281 | 3.2 | 17.7 | 0.00 | 0.00 | 0.00 | 27 | 992.6 |
| 20260905131811 | 35 | 279 | 3.2 | 14.5 | 0.00 | 0.00 | 0.00 | 28 | 992.7 |
| 20260905130911 | 35 | 270 | 0.0 | 12.9 | 0.00 | 0.00 | 0.00 | 27 | 992.8 |
| 20260905125111 | 35 | 231 | 4.8 | 11.3 | 0.00 | 0.00 | 0.00 | 28 | 992.8 |
| 20260905124211 | 35 | 270 | 3.2 | 12.9 | 0.00 | 0.00 | 0.00 | 28 | 992.8 |
| 20260905123311 | 34 | 256 | 3.2 | 17.7 | 0.00 | 0.00 | 0.00 | 28 | 992.8 |
| 20260905122411 | 34 | 199 | 4.8 | 12.9 | 0.00 | 0.00 | 0.00 | 28 | 992.9 |
| 20260905121511 | 34 | 259 | 4.8 | 11.3 | 0.00 | 0.00 | 0.00 | 28 | 992.9 |
| 20260905120611 | 33 | 261 | 4.8 | 12.9 | 0.00 | 0.00 | 0.00 | 29 | 992.9 |
| 20260905115711 | 34 | 242 | 3.2 | 11.3 | 0.00 | 0.00 | 0.00 | 29 | 993.0 |
| 20260905114811 | 33 | 260 | 6.4 | 12.9 | 0.00 | 0.00 | 0.00 | 30 | 993.0 |
| 20260905113911 | 33 | 266 | 4.8 | 12.9 | 0.00 | 0.00 | 0.00 | 29 | 993.1 |
| 20260905113011 | 33 | 225 | 4.8 | 12.9 | 0.00 | 0.00 | 0.00 | 30 | 993.1 |
| 20260905111211 | 33 | 213 | 3.2 | 11.3 | 0.00 | 0.00 | 0.00 | 31 | 993.0 |
| 20260905110311 | 33 | 242 | 6.4 | 17.7 | 0.00 | 0.00 | 0.00 | 30 | 993.1 |
| 20260905104511 | 33 | 267 | 3.2 | 11.3 | 0.00 | 0.00 | 0.00 | 31 | 993.0 |